Location: Home
(42.5358°N, 72.7383°W)
Time: 10:26:59
(UTC-05:00)

S-56A Canister/Altair - Pass Details

Date: 04 December 2021
Orbit: 634 x 2499 km, 38.9° (Epoch: 22 January)

Event Time Altitude Azimuth Distance (km) Brightness Sun altitude
Rises 21:22:20 0° 207° (SSW) 5,834 12.1 -54.8°
Enters shadow 21:24:57 - 202° (SSW) 5,172 11.7 -55.2°
Reaches altitude 10° 21:27:20 10° 197° (SSW) 4,577 - -55.6°
Maximum altitude 21:36:24 25° 148° (SSE) 2,922 - -57.1°
Drops below altitude 10° 21:43:18 10° 97° (E) 3,407 - -58.2°
Sets 21:46:21 0° 84° (E) 4,112 - -58.7°
